Vertical_Velocity
0 -1 -1 1 0 2 -0 0 -0 1 1 1 1 1 1 1 1 1 1 1 -0 -0 1 0 -0 -1 -1 -1 -1 -1 -1 -0 -1
2 1 1 1 0 1 -1 -1 1 -1 -1 -1 1 0 -0 -0 0 1 1 2 1 0 -0 -0 -0 0 0 -0 -1 -1 -1 -1 -1
0 1 -1 1 0 0 2 -1 -1 -0 -0 -0 -1 -0 1 -0 0 -0 -0 -0 1 2 2 1 1 0 -0 0 -0 -0 -0 -0 -0
-0 1 1 -0 0 2 2 0 -0 -1 -0 0 -1 0 -0 0 0 0 1 1 -0 -0 -0 1 1 2 2 1 1 1 1 0 -0
-2 -0 2 1 1 1 2 1 2 0 1 -1 -2 -0 0 -0 0 1 0 0 1 1 1 0 1 0 0 0 0 1 -1 0 0
-0 0 0 -0 1 1 2 2 1 0 -1 1 1 -1 -1 1 1 -0 1 1 -0 -0 0 -0 0 -0 1 1 -1 -1 0 -0 0
0 0 1 1 1 1 2 4 2 1 1 -1 0 1 -2 1 0 1 -1 1 1 0 0 0 0 0 1 1 0 -0 -0 -0 -1
2 1 -0 1 -0 2 1 2 4 3 1 1 3 0 -1 -0 -1 0 1 -1 -1 -0 0 -1 -0 0 -0 -1 0 -0 -1 0 -0
1 1 2 -2 -1 3 1 2 1 4 2 2 2 2 1 1 -0 -0 0 -0 -1 -1 -1 -0 0 -1 -0 -1 -1 -1 0 0 0
-0 2 3 3 2 3 -0 1 0 1 2 1 2 2 1 -0 2 1 -0 0 -1 -1 -2 -2 -1 -0 -0 -1 1 0 1 0 -1
1 -1 1 3 1 -0 1 1 2 0 1 2 1 3 -0 -0 1 -1 0 0 -0 -0 -0 -1 -2 -2 -2 1 1 1 0 0 -0
3 3 1 3 2 4 -1 3 2 1 1 3 -1 2 2 -2 -1 -0 -1 -0 -0 -2 -1 -0 -0 0 -1 -1 1 0 1 -1 -0
-1 0 5 3 2 3 -0 3 3 1 -1 0 2 3 0 -1 -2 -5 -0 -1 -1 -0 -2 -1 -2 -0 -0 0 1 2 1 1 1
-1 -2 -1 2 3 2 3 4 3 1 -15 -4 -7 -0 -2 1 -4 -2 -3 -4 -1 1 2 1 0 -1 -1 -2 -0 -1 -1 0 1
-3 -1 1 0 2 7 1 1 1 3 -40 108 -20 4 -0 7 29 -19 41 -3 -2 -0 1 1 0 0 -1 -0 -1 -4 -2 -2 -3
-8 -2 1 2 1 8 3 0 2 -1 6 2 32 -19 63 58 92 0 -3 -1 -3 19 12 1 -1 -2 -2 0 -1 -1 -1 -2 -1
-2 -1 -1 7 7 9 8 2 2 -1 5 4 10 7 17 -13 52 -6 -0 2 -1 -3 -2 4 0 -0 -3 -3 -3 -2 0 -1 -2
-5 -3 -4 1 6 11 5 2 4 4 3 -10 13 20 20 50 -1 26 21 5 7 -3 2 2 -2 -0 -1 -1 -2 1 -0 1 2
-5 -5 -2 1 -2 5 4 6 2 0 -0 4 9 -8 7 29 -0 12 24 -0 -1 -1 -0 -4 -4 2 -2 1 4 -1 -2 -4 -2
-1 -4 3 9 12 3 -1 -0 0 -2 -1 -0 7 7 -9 21 -4 0 -3 -0 -1 6 5 -3 9 7 -3 -0 2 -1 -2 -0 -2
Height
5853 5853 5852 5852 5851 5851 5850 5850 5849 5849 5850 5850 5850 5850 5850 5850 5849 5849 5849 5849 5849 5850 5850 5850 5850 5851 5851 5851 5851 5852 5852 5852 5852
5849 5848 5847 5847 5847 5846 5846 5845 5845 5844 5844 5844 5845 5846 5846 5846 5846 5845 5845 5845 5846 5846 5846 5847 5847 5847 5847 5847 5848 5848 5848 5848 5848
5843 5842 5842 5842 5841 5840 5840 5840 5840 5839 5839 5839 5839 5840 5841 5841 5841 5841 5841 5842 5842 5842 5842 5843 5843 5843 5843 5843 5844 5844 5844 5844 5844
5836 5835 5835 5835 5834 5834 5834 5834 5834 5834 5833 5833 5833 5834 5834 5835 5836 5836 5837 5837 5838 5838 5838 5839 5839 5839 5839 5839 5839 5839 5840 5840 5840
5829 5828 5827 5826 5826 5826 5826 5826 5826 5827 5827 5827 5827 5828 5828 5829 5830 5830 5831 5832 5833 5834 5834 5834 5834 5835 5835 5835 5835 5835 5835 5835 5835
5820 5819 5819 5818 5818 5817 5817 5817 5818 5818 5820 5821 5821 5821 5821 5823 5823 5824 5825 5826 5827 5828 5828 5829 5830 5830 5830 5830 5830 5830 5830 5830 5830
5810 5809 5809 5809 5808 5808 5808 5807 5807 5809 5811 5812 5814 5814 5814 5816 5817 5817 5818 5819 5820 5821 5822 5823 5824 5824 5824 5824 5824 5825 5825 5825 5825
5799 5799 5799 5799 5799 5798 5799 5798 5798 5799 5800 5802 5804 5807 5807 5807 5808 5810 5811 5812 5813 5814 5815 5816 5817 5817 5817 5818 5818 5818 5818 5818 5819
5788 5787 5788 5787 5787 5787 5787 5788 5789 5790 5790 5791 5794 5796 5799 5799 5800 5801 5803 5805 5806 5807 5808 5809 5809 5809 5810 5810 5811 5811 5811 5812 5812
5773 5773 5773 5774 5774 5775 5776 5777 5778 5780 5781 5782 5784 5786 5789 5791 5792 5793 5794 5796 5798 5799 5800 5801 5801 5802 5803 5803 5803 5804 5804 5804 5804
5758 5756 5756 5757 5758 5759 5762 5764 5766 5769 5771 5773 5775 5777 5778 5780 5783 5784 5785 5786 5789 5790 5791 5792 5793 5794 5795 5796 5797 5797 5797 5797 5796
5742 5740 5739 5739 5739 5741 5744 5749 5752 5756 5760 5763 5765 5768 5770 5771 5773 5775 5777 5778 5779 5781 5782 5784 5785 5786 5788 5789 5790 5790 5791 5790 5790
5728 5725 5723 5721 5721 5723 5725 5731 5737 5743 5748 5752 5755 5758 5760 5763 5764 5765 5768 5769 5770 5772 5773 5775 5777 5778 5778 5781 5782 5783 5784 5784 5784
5707 5703 5701 5701 5701 5703 5707 5713 5719 5731 5735 5742 5744 5747 5750 5753 5750 5753 5756 5759 5761 5763 5765 5767 5768 5769 5770 5772 5773 5775 5776 5776 5776
5685 5678 5675 5675 5678 5683 5688 5695 5702 5712 5727 5719 5732 5732 5739 5739 5740 5746 5738 5749 5752 5753 5755 5757 5758 5760 5762 5763 5764 5766 5767 5768 5768
5651 5643 5641 5644 5651 5659 5668 5676 5685 5695 5706 5715 5721 5723 5716 5716 5720 5730 5735 5738 5742 5743 5744 5746 5747 5749 5751 5752 5754 5755 5756 5757 5758
5614 5605 5600 5603 5616 5632 5645 5657 5669 5680 5691 5700 5706 5703 5711 5707 5713 5720 5724 5727 5730 5732 5734 5735 5736 5738 5740 5742 5742 5743 5744 5746 5747
5602 5591 5581 5580 5588 5605 5623 5641 5654 5666 5677 5686 5694 5692 5694 5698 5703 5704 5711 5714 5718 5720 5721 5723 5724 5726 5728 5731 5731 5732 5732 5734 5735
5599 5587 5579 5578 5583 5595 5612 5628 5642 5653 5664 5675 5682 5682 5687 5687 5696 5698 5695 5702 5704 5707 5709 5710 5714 5715 5717 5720 5722 5720 5722 5723 5723
5601 5590 5584 5582 5587 5596 5608 5620 5633 5645 5655 5664 5669 5672 5677 5676 5683 5688 5687 5690 5693 5698 5699 5700 5702 5703 5705 5708 5710 5710 5711 5711 5711